QPF
0.00 0.00 0.00 0.00 0.01 0.01 0.01 0.00 0.00 0.00 0.00 0.00 0.00 0.00 0.00 0.00 0.00 0.00 0.00 0.00 0.00 0.00 0.00 0.00 0.00 0.00 0.00 0.00 0.00 0.00 0.00 0.00 0.00 0.00 0.00 0.00 0.00 0.00 0.00 0.00 0.00 0.02 0.01
0.00 0.00 0.00 0.00 0.00 0.01 0.01 0.01 0.01 0.00 0.00 0.00 0.00 0.00 0.00 0.00 0.00 0.00 0.00 0.00 0.00 0.00 0.00 0.00 0.00 0.00 0.00 0.00 0.00 0.00 0.00 0.00 0.00 0.00 0.00 0.00 0.00 0.00 0.00 0.00 0.00 0.03 0.00
0.00 0.00 0.00 0.00 0.00 0.00 0.00 0.00 0.00 0.00 0.00 0.00 0.00 0.00 0.00 0.00 0.00 0.00 0.00 0.00 0.00 0.02 0.02 0.00 0.00 0.00 0.00 0.00 0.00 0.00 0.00 0.00 0.00 0.00 0.00 0.00 0.00 0.00 0.00 0.00 0.01 0.01 0.01
0.00 0.00 0.00 0.00 0.00 0.00 0.00 0.00 0.00 0.00 0.00 0.00 0.00 0.00 0.00 0.00 0.01 0.00 0.01 0.01 0.01 0.02 0.04 0.04 0.05 0.03 0.02 0.00 0.00 0.00 0.00 0.00 0.00 0.00 0.00 0.00 0.00 0.00 0.00 0.00 0.00 0.01 0.03
0.00 0.00 0.00 0.00 0.00 0.00 0.00 0.00 0.00 0.00 0.00 0.00 0.00 0.00 0.00 0.00 0.00 0.00 0.00 0.00 0.00 0.00 0.01 0.02 0.03 0.03 0.02 0.00 0.00 0.00 0.00 0.00 0.00 0.00 0.00 0.00 0.00 0.00 0.00 0.00 0.00 0.01 0.01
0.00 0.00 0.00 0.00 0.00 0.00 0.00 0.00 0.00 0.00 0.00 0.00 0.00 0.00 0.00 0.00 0.00 0.00 0.00 0.00 0.00 0.00 0.00 0.00 0.00 0.00 0.00 0.00 0.00 0.00 0.00 0.00 0.00 0.00 0.00 0.00 0.00 0.00 0.00 0.00 0.00 0.01 0.01
0.00 0.00 0.01 0.00 0.00 0.00 0.00 0.00 0.00 0.00 0.00 0.00 0.00 0.00 0.00 0.00 0.00 0.00 0.00 0.00 0.00 0.00 0.00 0.00 0.00 0.00 0.00 0.00 0.00 0.00 0.00 0.00 0.00 0.00 0.00 0.00 0.00 0.00 0.00 0.00 0.01 0.00 0.00
0.00 0.01 0.03 0.10 0.02 0.00 0.00 0.03 0.03 0.00 0.00 0.00 0.00 0.00 0.00 0.00 0.00 0.00 0.00 0.00 0.00 0.00 0.00 0.00 0.00 0.00 0.00 0.00 0.00 0.00 0.00 0.00 0.00 0.00 0.00 0.00 0.00 0.00 0.00 0.00 0.01 0.01 0.00
0.00 0.06 0.09 0.16 0.02 0.02 0.05 0.03 0.01 0.00 0.00 0.00 0.00 0.00 0.00 0.00 0.00 0.00 0.00 0.00 0.00 0.00 0.00 0.00 0.00 0.00 0.00 0.00 0.00 0.00 0.00 0.00 0.00 0.01 0.00 0.00 0.00 0.00 0.00 0.00 0.00 0.00 0.01
0.00 0.05 0.05 0.09 0.08 0.02 0.02 0.01 0.00 0.00 0.00 0.00 0.00 0.00 0.00 0.00 0.00 0.00 0.00 0.00 0.00 0.00 0.00 0.00 0.00 0.00 0.00 0.00 0.00 0.00 0.00 0.00 0.00 0.01 0.04 0.04 0.00 0.00 0.00 0.00 0.00 0.00 0.00
0.00 0.01 0.01 0.04 0.04 0.03 0.00 0.00 0.00 0.00 0.00 0.00 0.00 0.00 0.00 0.00 0.00 0.00 0.00 0.00 0.00 0.00 0.00 0.00 0.00 0.00 0.00 0.00 0.00 0.00 0.00 0.00 0.00 0.00 0.01 0.03 0.05 0.00 0.00 0.00 0.00 0.00 0.00
0.00 0.01 0.02 0.03 0.01 0.00 0.00 0.00 0.00 0.00 0.00 0.00 0.00 0.00 0.00 0.00 0.00 0.00 0.00 0.00 0.00 0.00 0.00 0.00 0.00 0.00 0.00 0.00 0.00 0.00 0.00 0.00 0.00 0.00 0.00 0.02 0.05 0.02 0.03 0.01 0.00 0.00 0.00
0.00 0.00 0.01 0.00 0.00 0.00 0.00 0.00 0.00 0.00 0.00 0.00 0.00 0.00 0.00 0.00 0.00 0.00 0.00 0.00 0.00 0.00 0.00 0.00 0.00 0.00 0.00 0.00 0.00 0.00 0.00 0.00 0.00 0.00 0.00 0.00 0.00 0.01 0.03 0.02 0.03 0.01 0.00
0.00 0.00 0.00 0.00 0.00 0.00 0.00 0.00 0.00 0.00 0.00 0.00 0.00 0.00 0.00 0.00 0.00 0.00 0.00 0.00 0.00 0.00 0.00 0.00 0.00 0.00 0.00 0.00 0.00 0.00 0.00 0.00 0.00 0.00 0.00 0.00 0.00 0.00 0.00 0.00 0.02 0.04 0.02
0.00 0.00 0.00 0.00 0.00 0.00 0.00 0.00 0.00 0.00 0.00 0.00 0.00 0.00 0.00 0.00 0.00 0.00 0.00 0.00 0.00 0.00 0.00 0.00 0.00 0.00 0.00 0.00 0.00 0.00 0.00 0.00 0.00 0.00 0.00 0.00 0.00 0.00 0.00 0.00 0.00 0.00 0.02
0.00 0.00 0.00 0.00 0.00 0.00 0.00 0.00 0.00 0.00 0.00 0.00 0.00 0.00 0.00 0.00 0.00 0.00 0.00 0.00 0.00 0.00 0.00 0.00 0.00 0.00 0.00 0.00 0.00 0.00 0.00 0.00 0.00 0.00 0.00 0.00 0.00 0.00 0.00 0.00 0.00 0.00 0.00
0.00 0.00 0.00 0.00 0.00 0.00 0.00 0.00 0.00 0.00 0.00 0.00 0.00 0.00 0.00 0.00 0.00 0.00 0.00 0.00 0.00 0.00 0.00 0.00 0.00 0.00 0.00 0.00 0.00 0.00 0.00 0.00 0.00 0.00 0.00 0.00 0.00 0.00 0.00 0.00 0.00 0.00 0.00
0.00 0.00 0.00 0.00 0.00 0.00 0.00 0.00 0.00 0.00 0.00 0.00 0.00 0.00 0.00 0.00 0.00 0.00 0.00 0.00 0.00 0.00 0.00 0.00 0.00 0.00 0.00 0.00 0.00 0.00 0.00 0.00 0.00 0.00 0.00 0.00 0.00 0.00 0.00 0.00 0.00 0.00 0.00
0.00 0.00 0.00 0.00 0.00 0.00 0.00 0.00 0.00 0.00 0.00 0.00 0.00 0.00 0.00 0.00 0.00 0.00 0.00 0.00 0.00 0.00 0.00 0.00 0.00 0.00 0.00 0.00 0.00 0.00 0.00 0.00 0.00 0.00 0.00 0.00 0.00 0.00 0.00 0.00 0.00 0.00 0.00
0.00 0.00 0.00 0.00 0.00 0.00 0.00 0.00 0.00 0.00 0.00 0.00 0.00 0.00 0.00 0.00 0.00 0.00 0.00 0.00 0.00 0.00 0.00 0.00 0.00 0.00 0.00 0.00 0.00 0.00 0.00 0.00 0.00 0.00 0.00 0.00 0.00 0.00 0.00 0.00 0.00 0.00 0.00
0.00 0.00 0.00 0.00 0.00 0.00 0.00 0.00 0.00 0.00 0.00 0.00 0.00 0.00 0.00 0.00 0.00 0.00 0.00 0.00 0.00 0.00 0.00 0.00 0.00 0.00 0.00 0.00 0.00 0.00 0.00 0.00 0.00 0.00 0.00 0.00 0.00 0.00 0.00 0.00 0.00 0.00 0.00
0.00 0.00 0.00 0.00 0.00 0.00 0.00 0.00 0.00 0.00 0.00 0.00 0.00 0.00 0.00 0.00 0.00 0.00 0.00 0.00 0.00 0.00 0.00 0.00 0.00 0.00 0.00 0.00 0.00 0.00 0.00 0.00 0.00 0.00 0.00 0.00 0.00 0.00 0.00 0.00 0.00 0.00 0.01
0.00 0.00 0.00 0.00 0.00 0.00 0.00 0.00 0.00 0.00 0.00 0.00 0.00 0.00 0.00 0.00 0.00 0.00 0.00 0.00 0.00 0.00 0.00 0.00 0.00 0.00 0.00 0.00 0.00 0.00 0.00 0.00 0.00 0.00 0.00 0.00 0.00 0.00 0.00 0.00 0.00 0.01 0.00
0.00 0.00 0.00 0.00 0.00 0.00 0.00 0.00 0.00 0.00 0.00 0.00 0.00 0.00 0.00 0.00 0.00 0.00 0.00 0.00 0.00 0.00 0.00 0.00 0.00 0.00 0.00 0.00 0.00 0.00 0.00 0.00 0.00 0.00 0.00 0.00 0.00 0.00 0.00 0.00 0.00 0.00 0.00
0.00 0.00 0.00 0.00 0.00 0.00 0.00 0.00 0.00 0.00 0.00 0.00 0.00 0.00 0.00 0.00 0.00 0.00 0.00 0.00 0.00 0.00 0.00 0.00 0.00 0.00 0.00 0.00 0.00 0.00 0.00 0.00 0.00 0.00 0.00 0.00 0.00 0.00 0.00 0.00 0.00 0.00 0.00
0.00 0.00 0.00 0.00 0.00 0.00 0.00 0.00 0.00 0.00 0.00 0.00 0.00 0.00 0.00 0.00 0.00 0.00 0.00 0.00 0.00 0.00 0.00 0.00 0.00 0.00 0.00 0.00 0.00 0.00 0.00 0.00 0.00 0.00 0.00 0.00 0.00 0.00 0.00 0.00 0.00 0.00 0.00
MSLP
1013.84 1014.38 1014.67 1014.69 1014.73 1014.94 1015.16 1015.26 1015.38 1015.41 1015.21 1015.05 1015.09 1015.26 1015.28 1015.45 1015.52 1015.66 1015.75 1015.76 1015.85 1015.90 1015.97 1015.93 1015.81 1015.66 1015.72 1015.75 1015.84 1015.82 1015.59 1015.52 1015.54 1015.28 1015.05 1015.00 1014.96 1014.98 1014.96 1015.01 1014.97 1014.17 1014.91
1013.86 1014.59 1015.06 1015.11 1015.14 1015.24 1015.42 1015.53 1015.61 1015.54 1015.51 1015.46 1015.28 1015.54 1015.68 1015.80 1015.88 1016.01 1016.01 1015.96 1015.99 1016.05 1016.06 1016.11 1016.13 1016.01 1015.88 1015.89 1015.81 1015.78 1015.77 1015.73 1015.52 1015.48 1015.23 1015.06 1014.91 1015.01 1014.97 1015.07 1015.04 1014.79 1015.10
1014.48 1014.76 1015.09 1015.42 1015.48 1015.67 1015.83 1016.05 1016.08 1015.87 1015.83 1015.68 1015.62 1015.69 1015.78 1015.90 1016.00 1016.12 1016.12 1016.07 1016.08 1016.17 1016.24 1016.21 1016.13 1016.09 1015.91 1015.96 1015.86 1015.77 1015.79 1015.81 1015.65 1015.44 1015.32 1014.12 1013.54 1014.88 1014.97 1015.07 1015.08 1015.19 1015.25
1014.89 1015.28 1015.55 1015.79 1015.76 1015.92 1016.03 1016.22 1016.31 1016.56 1016.25 1016.14 1016.11 1015.92 1016.07 1016.27 1016.39 1016.47 1016.49 1016.46 1016.42 1016.37 1016.40 1016.30 1016.35 1016.17 1016.15 1015.94 1015.97 1015.84 1015.80 1015.80 1015.68 1015.48 1014.50 1013.89 1013.79 1014.72 1014.94 1015.02 1015.05 1015.24 1015.23
1015.47 1015.64 1015.99 1016.11 1016.13 1016.28 1016.26 1016.09 1016.33 1016.63 1016.93 1016.60 1016.55 1016.52 1016.62 1016.69 1016.75 1016.84 1016.90 1016.92 1016.88 1016.88 1016.84 1016.72 1016.65 1016.47 1016.27 1016.12 1015.93 1015.86 1015.76 1015.84 1015.68 1015.29 1013.84 1014.02 1013.86 1014.02 1014.74 1014.88 1014.81 1014.89 1015.02
1015.79 1015.87 1016.48 1016.61 1016.74 1016.79 1016.88 1017.19 1015.70 1016.90 1017.39 1017.18 1017.11 1017.04 1017.07 1017.17 1017.10 1017.24 1017.33 1017.38 1017.28 1017.44 1017.32 1017.23 1017.13 1016.94 1016.59 1016.22 1016.08 1015.84 1015.79 1015.70 1015.72 1014.14 1013.47 1013.74 1014.19 1014.04 1014.56 1014.67 1014.69 1014.63 1014.84
1016.25 1016.18 1016.72 1017.03 1017.20 1017.32 1017.42 1017.56 1017.14 1017.44 1017.99 1017.67 1017.54 1017.55 1017.57 1017.62 1017.40 1017.58 1017.84 1017.79 1017.84 1017.79 1017.71 1017.65 1017.55 1017.29 1017.03 1016.75 1016.29 1016.00 1015.85 1015.74 1015.28 1014.02 1013.55 1013.46 1013.66 1014.13 1014.50 1014.62 1014.58 1014.59 1014.65
1016.86 1016.98 1017.25 1017.39 1017.64 1017.77 1017.76 1017.82 1017.70 1018.18 1018.36 1017.99 1018.03 1018.14 1018.00 1017.87 1017.99 1018.08 1018.22 1018.19 1018.06 1017.97 1017.84 1017.94 1017.61 1017.59 1017.52 1017.16 1016.69 1016.35 1015.89 1015.76 1015.05 1013.92 1013.33 1013.22 1013.45 1014.09 1014.34 1014.40 1014.50 1014.53 1014.46
1017.69 1017.66 1017.88 1017.76 1017.94 1018.14 1018.20 1018.46 1018.61 1018.76 1018.59 1018.54 1018.57 1018.62 1018.27 1018.21 1018.25 1018.40 1018.46 1018.37 1018.28 1018.21 1018.16 1018.02 1017.77 1017.52 1017.26 1017.12 1016.92 1016.63 1016.25 1015.73 1015.03 1013.85 1013.40 1012.90 1013.05 1013.86 1014.03 1014.06 1014.15 1014.26 1014.35
1018.23 1018.20 1018.20 1018.25 1018.07 1017.86 1018.28 1018.87 1019.14 1019.15 1019.21 1019.05 1019.04 1018.97 1018.65 1018.56 1018.64 1018.68 1018.63 1018.77 1018.73 1018.58 1018.29 1017.98 1017.82 1017.73 1017.32 1016.80 1016.57 1016.51 1016.27 1015.46 1014.22 1013.75 1013.65 1013.14 1013.27 1013.68 1013.90 1013.86 1013.79 1013.83 1014.01
1018.37 1018.55 1018.18 1018.13 1018.22 1018.10 1018.36 1018.97 1019.04 1019.21 1019.22 1019.09 1018.82 1018.93 1018.36 1018.42 1018.56 1018.52 1019.20 1019.11 1018.94 1018.91 1018.77 1018.52 1018.04 1017.46 1017.10 1016.29 1016.04 1015.98 1015.68 1014.26 1013.83 1013.44 1013.20 1013.59 1013.74 1013.70 1013.63 1013.51 1013.48 1013.43 1013.48
1018.46 1018.77 1018.61 1018.33 1018.27 1018.36 1018.24 1018.56 1018.73 1018.86 1019.13 1019.14 1019.10 1018.98 1018.76 1018.86 1019.03 1018.88 1018.96 1019.11 1018.87 1018.69 1018.40 1018.34 1018.11 1017.51 1016.35 1015.76 1015.40 1015.24 1014.32 1014.37 1014.42 1013.43 1012.93 1013.48 1013.95 1013.91 1013.60 1013.18 1013.03 1013.12 1013.07
1018.10 1018.52 1018.44 1018.65 1018.64 1018.42 1018.54 1018.47 1018.54 1018.94 1019.11 1019.29 1019.59 1019.45 1019.24 1019.02 1019.04 1018.80 1018.63 1018.64 1018.52 1018.57 1018.13 1017.78 1017.16 1016.98 1017.18 1016.83 1015.94 1015.76 1015.09 1014.59 1013.76 1013.26 1012.87 1013.50 1013.75 1013.87 1013.56 1013.22 1012.91 1012.61 1012.61
1017.46 1017.92 1018.23 1018.51 1019.00 1019.18 1018.79 1018.87 1019.09 1019.27 1019.55 1019.68 1019.99 1020.00 1019.70 1019.30 1019.30 1019.28 1019.05 1018.86 1018.74 1018.74 1018.55 1018.03 1017.54 1017.49 1017.14 1016.90 1016.51 1016.08 1015.88 1015.20 1013.84 1013.28 1012.94 1013.23 1013.59 1013.72 1013.51 1013.19 1012.90 1012.51 1012.17
1017.52 1018.00 1018.47 1018.81 1019.06 1019.28 1019.35 1019.58 1019.82 1019.93 1020.10 1020.22 1020.22 1020.56 1020.25 1019.82 1019.72 1019.65 1019.54 1019.41 1019.35 1019.17 1018.79 1018.36 1017.99 1017.62 1017.20 1016.78 1016.45 1016.12 1015.56 1015.18 1014.88 1013.93 1013.11 1013.03 1013.36 1013.41 1013.27 1012.90 1012.64 1012.41 1012.14
1017.81 1018.40 1019.03 1019.24 1019.55 1019.76 1019.96 1020.15 1020.22 1020.45 1020.58 1020.62 1020.84 1021.08 1020.87 1020.39 1020.35 1020.01 1019.92 1019.90 1019.68 1019.55 1019.27 1018.74 1018.39 1017.90 1017.23 1016.72 1016.16 1015.80 1015.65 1015.13 1014.50 1014.24 1013.49 1012.76 1012.79 1012.88 1012.83 1012.67 1012.35 1012.18 1011.97
1017.66 1018.66 1019.27 1019.68 1020.00 1020.01 1020.18 1020.28 1020.36 1020.65 1020.75 1020.81 1021.00 1021.44 1021.36 1021.18 1020.91 1020.68 1020.58 1020.42 1020.39 1019.96 1019.55 1019.03 1018.49 1017.89 1017.34 1016.72 1016.06 1015.66 1015.14 1014.66 1014.28 1013.80 1013.52 1012.95 1012.28 1012.09 1012.11 1012.16 1012.19 1011.96 1011.77
1017.76 1018.54 1019.28 1019.83 1020.20 1020.47 1020.71 1020.69 1020.84 1021.14 1021.12 1021.15 1021.35 1021.60 1021.80 1021.83 1021.64 1021.12 1020.73 1020.88 1020.82 1020.18 1019.82 1019.31 1018.76 1018.19 1017.54 1016.82 1016.25 1015.60 1015.09 1014.46 1013.97 1013.66 1013.21 1012.91 1012.32 1011.96 1011.59 1011.48 1011.66 1011.69 1011.52
1018.16 1018.96 1019.57 1020.05 1020.39 1020.73 1021.08 1021.11 1021.44 1021.55 1021.37 1021.56 1021.74 1021.98 1022.26 1022.23 1022.01 1021.41 1021.47 1021.43 1020.94 1020.36 1020.13 1019.78 1019.35 1018.86 1017.78 1017.24 1016.54 1015.59 1014.90 1014.25 1013.74 1013.27 1012.90 1012.76 1012.41 1012.04 1011.48 1011.04 1011.11 1011.09 1011.00
1018.47 1019.06 1019.49 1019.98 1020.56 1020.92 1020.92 1021.17 1021.30 1021.47 1021.72 1021.93 1022.21 1022.54 1022.66 1022.62 1022.40 1021.92 1021.74 1021.71 1021.22 1020.82 1020.46 1020.20 1019.89 1019.24 1018.26 1017.73 1016.89 1015.37 1014.80 1014.03 1013.77 1013.72 1013.55 1013.31 1012.90 1011.96 1011.70 1011.94 1011.25 1010.49 1010.79
1018.66 1019.01 1019.52 1020.16 1020.59 1020.61 1020.67 1020.84 1021.15 1021.46 1021.97 1022.35 1022.62 1023.04 1023.11 1023.19 1022.98 1022.61 1022.20 1022.08 1021.64 1021.21 1021.17 1020.78 1020.38 1019.61 1018.52 1018.16 1016.87 1015.95 1014.17 1014.16 1014.37 1014.17 1013.46 1013.79 1013.52 1013.00 1012.47 1012.05 1011.51 1011.27 1010.45
1018.59 1019.22 1019.53 1019.83 1020.35 1020.80 1020.93 1021.28 1021.69 1022.03 1022.47 1022.72 1022.86 1023.24 1023.47 1023.50 1023.39 1023.04 1022.78 1022.39 1022.14 1021.57 1021.69 1021.49 1021.12 1020.37 1019.40 1019.16 1018.67 1016.61 1015.04 1014.20 1014.45 1014.04 1014.17 1013.77 1013.34 1013.33 1013.06 1012.66 1011.99 1011.59 1011.68
1018.68 1019.28 1019.74 1020.19 1020.61 1020.92 1021.32 1021.87 1022.21 1022.69 1022.74 1022.68 1023.00 1023.19 1023.84 1023.85 1023.78 1023.68 1023.37 1023.01 1022.76 1022.32 1022.10 1022.04 1021.89 1021.37 1020.38 1019.72 1019.59 1019.49 1017.96 1017.25 1017.22 1014.67 1014.49 1014.16 1013.82 1013.50 1013.18 1012.98 1013.11 1012.99 1013.12
1018.63 1019.43 1019.99 1020.45 1020.96 1021.44 1021.65 1021.76 1021.96 1021.88 1022.28 1023.04 1023.41 1023.81 1023.76 1024.18 1024.22 1024.09 1023.84 1023.41 1023.04 1022.73 1022.69 1022.49 1022.15 1021.97 1021.49 1020.81 1020.62 1020.79 1020.43 1020.14 1019.26 1017.31 1015.33 1014.56 1014.92 1014.79 1015.13 1014.81 1014.56 1014.53 1014.32
1018.92 1019.58 1020.22 1020.81 1021.43 1021.94 1022.03 1022.11 1022.16 1022.48 1022.95 1023.39 1023.52 1023.76 1023.87 1024.39 1024.66 1024.15 1023.78 1023.50 1023.35 1023.03 1023.28 1023.10 1022.75 1022.56 1022.49 1022.33 1022.21 1021.79 1021.11 1020.02 1020.22 1019.47 1017.21 1016.00 1016.18 1016.10 1016.48 1016.35 1016.14 1015.73 1015.46
1019.15 1019.75 1020.24 1020.82 1021.63 1022.29 1022.39 1022.53 1022.70 1022.93 1023.30 1023.31 1023.82 1023.61 1023.73 1024.04 1024.17 1024.18 1023.72 1023.86 1023.81 1023.66 1023.77 1023.49 1023.40 1023.38 1023.26 1022.98 1022.95 1022.76 1022.34 1021.71 1021.30 1020.70 1019.40 1018.17 1017.64 1017.16 1017.30 1017.32 1017.37 1016.82 1016.28
Thickness
5737 5733 5732 5731 5731 5729 5726 5724 5722 5721 5722 5723 5722 5720 5720 5718 5717 5714 5712 5710 5708 5706 5704 5705 5705 5706 5704 5703 5702 5701 5702 5703 5702 5704 5705 5705 5705 5704 5704 5703 5702 5706 5702
5735 5729 5725 5724 5724 5724 5721 5718 5717 5716 5716 5716 5718 5715 5713 5712 5711 5708 5707 5706 5704 5701 5701 5699 5698 5698 5699 5698 5699 5699 5697 5696 5698 5699 5701 5701 5701 5700 5700 5699 5699 5700 5697
5726 5724 5721 5719 5718 5717 5715 5711 5710 5710 5710 5710 5711 5710 5708 5706 5705 5703 5702 5701 5700 5698 5696 5694 5694 5694 5695 5694 5694 5695 5694 5693 5694 5695 5696 5703 5708 5698 5697 5696 5696 5694 5693
5719 5716 5714 5712 5712 5711 5708 5706 5705 5701 5703 5703 5703 5705 5701 5699 5698 5697 5695 5694 5693 5692 5689 5690 5688 5689 5689 5690 5690 5691 5690 5690 5690 5691 5697 5701 5702 5696 5694 5693 5693 5691 5691
5711 5710 5707 5706 5705 5703 5703 5704 5700 5698 5693 5696 5696 5696 5694 5693 5692 5691 5689 5687 5685 5683 5682 5682 5681 5681 5683 5685 5686 5686 5687 5685 5686 5688 5698 5697 5698 5698 5693 5691 5691 5690 5690
5704 5703 5699 5696 5696 5694 5692 5689 5697 5692 5686 5687 5688 5687 5686 5685 5685 5683 5681 5679 5679 5675 5675 5673 5673 5673 5676 5679 5680 5682 5682 5683 5681 5692 5697 5695 5692 5694 5691 5690 5689 5689 5688
5696 5696 5691 5689 5687 5685 5682 5681 5684 5681 5675 5678 5680 5678 5677 5677 5678 5675 5671 5670 5669 5668 5668 5666 5665 5666 5668 5670 5674 5677 5678 5677 5679 5687 5692 5693 5692 5690 5688 5686 5687 5686 5685
5687 5685 5683 5681 5677 5675 5674 5674 5674 5669 5667 5672 5671 5669 5669 5670 5668 5666 5663 5662 5662 5662 5662 5659 5661 5660 5659 5662 5666 5669 5673 5674 5676 5684 5689 5690 5690 5686 5685 5685 5684 5683 5683
5676 5675 5672 5670 5669 5667 5666 5664 5661 5659 5661 5662 5661 5659 5662 5662 5660 5658 5656 5656 5656 5656 5655 5655 5656 5656 5657 5657 5658 5660 5664 5668 5673 5681 5684 5687 5688 5683 5683 5683 5682 5682 5680
5666 5664 5663 5661 5662 5664 5660 5655 5652 5652 5652 5652 5652 5651 5653 5653 5651 5650 5649 5649 5648 5648 5649 5651 5651 5650 5651 5655 5655 5656 5657 5664 5672 5678 5678 5681 5681 5680 5679 5680 5681 5681 5679
5659 5657 5658 5658 5656 5656 5654 5649 5648 5647 5646 5646 5647 5646 5648 5647 5645 5644 5640 5641 5642 5641 5640 5640 5643 5647 5648 5654 5654 5653 5656 5665 5668 5672 5676 5674 5673 5673 5674 5676 5678 5678 5678
5651 5648 5649 5649 5649 5648 5649 5646 5644 5643 5640 5639 5639 5638 5639 5637 5635 5635 5635 5634 5635 5636 5636 5635 5636 5640 5648 5650 5652 5654 5659 5658 5657 5666 5670 5668 5665 5667 5669 5673 5675 5674 5676
5647 5643 5644 5641 5640 5641 5639 5639 5638 5635 5633 5631 5628 5628 5628 5628 5627 5627 5628 5627 5628 5627 5629 5631 5635 5636 5634 5635 5642 5641 5647 5651 5657 5660 5663 5662 5659 5660 5663 5667 5670 5671 5672
5646 5642 5639 5635 5631 5628 5630 5629 5627 5625 5622 5620 5617 5616 5615 5617 5617 5616 5617 5617 5617 5617 5617 5621 5624 5624 5626 5627 5629 5633 5633 5637 5650 5654 5656 5655 5654 5653 5657 5660 5664 5667 5670
5638 5633 5629 5625 5623 5621 5620 5617 5613 5612 5609 5607 5606 5602 5603 5604 5604 5603 5603 5602 5602 5602 5605 5607 5610 5613 5615 5618 5621 5624 5627 5630 5631 5641 5648 5650 5648 5648 5651 5656 5659 5662 5665
5628 5623 5617 5615 5611 5608 5606 5603 5601 5598 5595 5593 5591 5588 5589 5591 5589 5589 5589 5587 5589 5589 5590 5594 5596 5599 5604 5608 5612 5615 5617 5621 5627 5628 5635 5643 5644 5644 5645 5648 5653 5656 5659
5622 5614 5607 5602 5599 5598 5595 5593 5591 5587 5584 5583 5580 5576 5576 5575 5575 5574 5572 5573 5572 5574 5575 5579 5584 5588 5592 5596 5601 5603 5607 5611 5615 5621 5623 5630 5637 5640 5641 5642 5643 5647 5651
5612 5605 5598 5592 5588 5584 5581 5580 5577 5574 5573 5573 5570 5566 5563 5560 5558 5559 5560 5557 5556 5558 5560 5563 5567 5571 5576 5582 5586 5590 5593 5599 5603 5607 5612 5617 5624 5629 5633 5635 5637 5638 5641
5600 5592 5586 5581 5577 5572 5568 5567 5564 5563 5563 5560 5556 5552 5547 5544 5544 5546 5543 5541 5543 5544 5544 5546 5548 5552 5560 5563 5567 5574 5579 5585 5589 5594 5599 5602 5607 5613 5620 5625 5628 5631 5634
5589 5583 5578 5573 5566 5561 5560 5556 5554 5552 5550 5546 5541 5536 5532 5530 5530 5530 5529 5527 5527 5528 5529 5529 5530 5534 5541 5543 5549 5559 5563 5569 5571 5573 5575 5580 5586 5595 5601 5605 5613 5620 5622
5578 5574 5569 5561 5555 5554 5552 5550 5547 5543 5537 5531 5526 5520 5517 5514 5513 5513 5513 5513 5513 5514 5512 5512 5512 5517 5524 5523 5533 5538 5552 5551 5548 5549 5557 5556 5561 5567 5577 5584 5592 5598 5606
5569 5563 5560 5556 5550 5544 5541 5536 5530 5525 5519 5514 5510 5505 5501 5499 5498 5498 5498 5498 5498 5499 5494 5493 5493 5496 5501 5500 5500 5520 5532 5536 5528 5531 5530 5536 5541 5544 5552 5560 5569 5576 5580
5557 5550 5545 5540 5536 5531 5525 5518 5513 5508 5505 5503 5498 5495 5489 5487 5485 5484 5483 5482 5481 5481 5480 5477 5475 5476 5479 5481 5479 5475 5490 5496 5485 5508 5507 5513 5518 5523 5530 5535 5541 5548 5552
5545 5537 5531 5527 5521 5514 5510 5508 5504 5506 5501 5489 5484 5479 5478 5474 5472 5470 5469 5470 5470 5469 5465 5464 5463 5461 5460 5461 5458 5452 5452 5448 5452 5468 5485 5489 5488 5494 5495 5503 5509 5515 5522
5530 5524 5518 5512 5505 5499 5497 5494 5493 5489 5483 5477 5474 5471 5468 5463 5459 5461 5461 5460 5457 5456 5450 5448 5447 5444 5441 5438 5433 5431 5432 5440 5434 5438 5458 5464 5459 5465 5466 5471 5477 5485 5493
5517 5511 5506 5501 5493 5486 5484 5481 5478 5474 5469 5468 5463 5463 5460 5456 5453 5451 5451 5447 5443 5440 5435 5433 5430 5426 5423 5422 5417 5414 5414 5415 5415 5417 5426 5437 5435 5440 5441 5446 5450 5459 5468